Location: Pic du Midi - T1M
(42.9366°N, 0.1426°E)
Time: 12:56:53
(UTC+01:00)

DUCHIFAT 1 - Pass Details

Date: 20 September 2021
Orbit: 583 x 603 km, 98.0° (Epoch: 18 October)

Event Time Altitude Azimuth Distance (km) Brightness Sun altitude
Rises 03:07:16 0° 11° (NNE) 2,838 ? -36.7°
Reaches altitude 10° 03:09:27 10° 11° (N) 1,928 ? -36.4°
Enters shadow 03:09:41 11° 11° (N) 1,831 ? -36.4°
